[[{"header":{"parameterUnit":"m.s-1","parameterCategory":1,"la1":30.2992,"la2":30.254,"lo1":-89.0895,"lo2":-89.0443,"dy":0.0025,"dx":0.0025,"nx":19,"ny":19,"refTime":"2026-03-30T09:00:00:Z","depth":0,"parameterNumber":2,"parameterNumberName":"U-component_of_WINDS"},"data":[0,0,0,-6.3624,-6.3626,-6.372,-6.372,-6.3874,-6.3876,0,0,0,0,0,0,0,0,0,0,0,-6.3619,-6.3621,-6.3624,-6.3627,-6.372,-6.372,-6.3874,-6.3876,0,0,0,0,0,0,0,0,0,0,0,-6.3618,-6.3621,-6.3623,-6.3627,-6.372,-6.372,-6.3873,-6.379,0,0,0,0,0,0,0,0,0,0,-6.3693,-6.3712,-6.362,-6.3623,-6.3628,-6.372,-6.372,-6.3785,-6.3795,-6.3847,0,-6.3902,0,-6.3892,-6.3889,-6.3889,0,0,0,-6.3608,-6.3704,-6.3709,-6.3623,-6.3629,-6.372,-6.3673,-6.379,-6.3802,-6.3861,-6.3904,-6.3909,-6.3895,-6.389,-6.3891,-6.4258,-6.426,0,0,-6.3603,-6.3647,-6.3701,-6.3717,-6.3708,-6.367,-6.3676,-6.3797,-6.3845,-6.3904,-6.3912,-6.3897,-6.3891,-6.3893,-6.4255,-6.4259,0,0,0,-6.3601,-6.3645,-6.3646,-6.3712,-6.3726,-6.3673,-6.368,-6.384,-6.3837,-6.3913,-6.3899,-6.3892,-6.3895,-6.4253,-6.4257,-6.4425,0,0,0,-6.3597,-6.3643,-6.3644,-6.3672,-6.3725,-6.3785,-6.3721,-6.3829,-6.3841,-6.3898,-6.3892,-6.3896,-6.425,-6.4255,-6.4414,-6.4496,0,0,0,-6.3605,-6.3644,-6.3666,-6.3675,-6.3717,-6.3782,-6.3785,-6.383,-6.3833,-6.3889,-6.3897,-6.4248,-6.4254,-6.4405,-6.448,-6.4604,0,0,0,-6.3626,-6.3813,-6.3669,-6.3873,-6.3717,-6.3888,-6.3784,-6.3908,-6.3977,-6.3893,-6.425,-6.4256,-6.4402,-6.447,-6.4594,-6.4713,-6.4769,0,0,-6.3887,-6.3846,-6.3963,-6.3837,-6.4045,-6.387,-6.4102,-6.4121,-6.4085,-6.4202,-6.421,-6.4418,-6.4479,-6.4602,-6.5069,-6.5113,0,0,0,-6.4061,-6.4145,-6.419,-6.4259,-6.4282,-6.4306,-6.4286,-6.4294,-6.4391,-6.4156,-6.4497,-6.4532,-6.4602,-6.4656,-6.4694,-6.475,-6.4285,-6.4284,-6.4283,-6.4489,-6.4436,-6.4625,-6.4584,-6.4653,-6.4633,-6.4682,-6.4688,-6.4612,-6.4695,-6.4727,-6.5017,-6.5084,-6.5111,-6.5171,-6.4789,-6.479,-6.4791,-6.4791,-6.4863,-6.4972,-6.4872,-6.5019,-6.4962,-6.5083,-6.5072,-6.5015,-6.5118,-6.4988,-6.5047,-6.4905,-6.5162,-6.521,-6.4803,-6.4801,-6.48,-6.4798,-6.4797,-6.5134,-6.5177,-6.5187,-6.5282,-6.5362,-6.5314,-6.5419,-6.5363,-6.5311,-6.537,-6.5396,-6.5393,-6.538,-6.5388,-6.5389,-6.539,-6.5391,-6.5391,-6.5392,-6.541,-6.5415,-6.5512,-6.5554,-6.5592,-6.5634,-6.5619,-6.5654,-6.5677,-6.5628,-6.5627,-6.5542,-6.5199,-6.5111,-6.5407,-6.5405,-6.5403,-6.5401,-6.54,-6.5801,-6.5704,-6.5854,-6.5892,-6.5937,-6.602,-6.595,-6.6026,-6.6047,-6.61,-6.6005,-6.5762,-6.5714,-6.5684,-6.5611,-6.6018,-6.6018,-6.6018,-6.6018,-6.6026,-6.5999,-6.6139,-6.6205,-6.6262,-6.6215,-6.6383,-6.6375,-6.6349,-6.6358,-6.6293,-6.6193,-6.6165,-6.6134,-6.6094,-6.6024,-6.6527,-6.6528,-6.6528,-6.6262,-6.6239,-6.6392,-6.637,-6.6403,-6.6431,-6.6587,-6.6664,-6.6616,-6.6548,-6.6364,-6.6342,-6.618,-6.6131,-6.6052,-6.5992,-6.5863,0,0]},{"header":{"parameterUnit":"m.s-1","parameterCategory":1,"la1":30.2992,"la2":30.254,"lo1":-89.0895,"lo2":-89.0443,"dy":0.0025,"dx":0.0025,"nx":19,"ny":19,"refTime":"2026-03-30T09:00:00:Z","depth":0,"parameterNumber":3,"parameterNumberName":"V-component_of_WINDS"},"data":[0,0,0,0.9812,0.9813,0.9889,0.9889,0.9977,0.9978,0,0,0,0,0,0,0,0,0,0,0,0.9784,0.9785,0.9812,0.9814,0.9889,0.9889,0.9977,0.9978,0,0,0,0,0,0,0,0,0,0,0,0.9784,0.9785,0.9785,0.9814,0.9889,0.9889,0.9977,0.9923,0,0,0,0,0,0,0,0,0,0,0.9851,0.982,0.9784,0.9785,0.9814,0.9889,0.9889,0.992,0.9926,0.9939,0,0.9949,0,0.9965,0.9983,0.9983,0,0,0,0.9817,0.9815,0.9841,0.9785,0.9815,0.9889,0.9856,0.9924,0.993,0.9947,0.9951,0.9954,0.9967,0.9984,0.9984,1.0048,1.0048,0,0,0.9813,0.9795,0.9836,0.9845,0.9833,0.9854,0.9858,0.9928,0.9931,0.9951,0.9956,0.9968,0.9984,0.9985,1.0048,1.0048,0,0,0,0.9799,0.9792,0.9816,0.9841,0.9855,0.9856,0.9861,0.9928,0.9937,0.9958,0.9969,0.9985,0.9986,1.0048,1.0048,1.0037,0,0,0,0.9796,0.9783,0.9813,0.9803,0.9854,0.9892,0.9859,0.9932,0.9941,0.9969,0.9985,0.9986,1.0048,1.0048,1.0037,1.0035,0,0,0,0.9781,0.9782,0.9791,0.9802,0.9834,0.9892,0.9905,0.9934,0.9948,0.9983,0.9987,1.0048,1.0048,1.0037,1.0035,1.0047,0,0,0,0.9759,0.9779,0.979,0.9817,0.9833,0.9885,0.9905,0.9944,0.9974,0.9985,1.0048,1.0048,1.0037,1.0035,1.0047,1.0054,1.0055,0,0,0.9773,0.978,0.9797,0.981,0.9855,0.9875,0.9918,0.9962,0.9982,1.0025,1.0027,1.0037,1.0035,1.0047,1.0068,1.0069,0,0,0,0.9795,0.9807,0.9823,0.9851,0.9886,0.9916,0.9956,0.9972,1.001,1.0,1.0046,1.0045,1.0053,1.0057,1.0057,1.0065,1.0049,1.0049,1.0049,0.9788,0.9814,0.9844,0.9879,0.9906,0.9948,0.9973,1.0002,1.0019,1.0029,1.0042,1.0052,1.0056,1.0057,1.0065,1.0048,1.0048,1.0048,1.0048,0.9811,0.9832,0.9857,0.9895,0.9922,0.9954,0.9996,1.0007,1.0041,1.0044,1.0052,1.0052,1.0057,1.0065,1.0047,1.0047,1.0047,1.0047,1.0047,0.9809,0.9823,0.9845,0.9889,0.9921,0.9956,0.9989,1.0012,1.0034,1.0043,1.0059,1.0059,1.0063,1.0049,1.0049,1.0049,1.0049,1.0049,1.0049,0.9798,0.9822,0.9847,0.9887,0.991,0.9942,0.9986,1.0008,1.0039,1.0053,1.0054,1.007,1.0053,1.0048,1.005,1.005,1.005,1.005,1.005,0.9811,0.9812,0.985,0.9872,0.9923,0.9954,0.9984,1.0029,1.0051,1.0066,1.0081,1.0065,1.0072,1.0072,1.0068,1.0076,1.0076,1.0076,1.0076,0.9808,0.9815,0.986,0.9895,0.9932,0.9964,1.0007,1.0042,1.0078,1.0094,1.0096,1.0093,1.0092,1.01,1.0099,1.0096,1.011,1.0111,1.0111,0.9818,0.983,0.9861,0.9898,0.994,0.9976,1.0017,1.0056,1.0098,1.0113,1.0106,1.0105,1.01,1.0098,1.011,1.0108,1.0103,0,0]}]]